FW5886 Weather Reports


Display with metric or nautical units.
time (UTC)temp
F
wind
direction
speed
MPH
gust
MPH
rain 1hr
in
rain 24hr
in
rain mn
in
humidity
%
barometer
mb
20260506133102 55 5 8.0 16.0 0.00 0.00 0.00 73 1014.0
20260506131555 55 320 5.0 14.0 0.00 0.00 0.00 73 1013.5
20260506130054 56 15 7.0 19.0 0.00 0.00 0.00 73 1013.2
20260506124557 56 34 7.0 16.0 0.00 0.00 0.00 73 1013.3
20260506123049 56 320 8.0 16.0 0.00 0.00 0.00 73 1013.0
20260506121601 56 39 8.0 16.0 0.00 0.00 0.00 73 1012.7
20260506120119 56 26 5.0 13.0 0.00 0.00 0.00 74 1012.6
20260506114551 57 343 10.0 17.0 0.00 0.00 0.00 73 1012.5
20260506113056 57 23 8.0 15.0 0.00 0.00 0.00 73 1012.1
20260506111552 57 349 6.0 17.0 0.00 0.00 0.00 73 1011.6
20260506110050 58 320 8.0 15.0 0.00 0.00 0.00 73 1011.7
20260506104553 59 21 9.0 16.0 0.00 0.00 0.00 74 1011.4
20260506103054 59 5 5.0 13.0 0.00 0.00 0.00 73 1011.0
20260506101558 59 320 6.0 12.0 0.00 0.00 0.00 73 1010.8
20260506100055 59 32 6.0 14.0 0.00 0.00 0.00 73 1010.6
20260506094553 60 21 7.0 13.0 0.00 0.00 0.00 72 1010.4
20260506093054 60 33 4.0 11.0 0.00 0.00 0.00 73 1010.4
20260506091557 60 40 8.0 13.0 0.00 0.00 0.00 72 1010.4
20260506090056 61 22 5.0 10.0 0.00 0.00 0.00 73 1010.3
20260506084554 61 54 5.0 11.0 0.00 0.00 0.00 73 1010.2
20260506083054 61 48 2.0 11.0 0.00 0.00 0.00 73 1009.8
20260506081555 61 34 5.0 10.0 0.00 0.00 0.00 73 1009.7
20260506073100 62 48 7.0 12.0 0.00 0.00 0.00 74 1009.6
20260506071555 63 31 4.0 11.0 0.00 0.00 0.00 74 1009.7
20260506070114 63 38 7.0 13.0 0.00 0.00 0.00 73 1009.7
20260506061553 64 58 6.0 14.0 0.00 0.00 0.00 72 1009.5
20260506050112 67 354 8.0 13.0 0.00 0.00 0.00 71 1009.4
20260506044600 68 320 7.0 14.0 0.00 0.00 0.00 71 1009.3
20260506043054 69 342 7.0 16.0 0.00 0.00 0.00 70 1009.4
20260506041556 69 31 6.0 13.0 0.00 0.00 0.00 69 1009.4
20260506040059 70 40 6.0 15.0 0.00 0.00 0.00 68 1009.1
20260506034551 70 0 6.0 12.0 0.00 0.00 0.00 67 1008.8
20260506033052 71 22 6.0 13.0 0.00 0.00 0.00 66 1008.4
20260506031559 71 7 6.0 14.0 0.00 0.00 0.00 67 1008.4
20260506030105 72 360 7.0 15.0 0.00 0.00 0.00 66 1008.2
20260506024555 73 28 7.0 14.0 0.00 0.00 0.00 65 1008.1
20260506023055 74 8 3.0 15.0 0.00 0.00 0.00 64 1007.6
20260506021551 75 360 3.0 13.0 0.00 0.00 0.00 65 1007.2
20260506020050 76 73 7.0 16.0 0.00 0.00 0.00 63 1006.6
20260506014600 78 19 6.0 12.0 0.00 0.00 0.00 62 1006.2
20260506013051 79 63 4.0 12.0 0.00 0.00 0.00 61 1006.0
20260506011557 80 44 7.0 14.0 0.00 0.00 0.00 60 1005.8
20260506010059 81 12 3.0 9.0 0.00 0.00 0.00 59 1005.7
20260506004623 82 354 5.0 9.0 0.00 0.00 0.00 58 1005.5
20260506003049 83 18 5.0 11.0 0.00 0.00 0.00 58 1005.4
20260506001550 83 0 2.0 7.0 0.00 0.00 0.00 68 1005.3
20260506000054 84 320 3.0 13.0 0.00 0.00 0.00 67 1004.9
20260505234611 84 320 6.0 13.0 0.00 0.00 0.00 67 1004.6
20260505233050 85 320 5.0 14.0 0.00 0.00 0.00 66 1004.6
20260505231552 86 320 8.0 16.0 0.00 0.00 0.00 66 1004.3
20260505230052 87 320 7.0 14.0 0.00 0.00 0.00 63 1004.3
20260505224555 89 320 5.0 12.0 0.00 0.00 0.00 58 1003.9
20260505223101 89 173 6.0 12.0 0.00 0.00 0.00 57 1003.9
20260505221607 88 320 3.0 12.0 0.00 0.00 0.00 58 1003.7
20260505220126 89 142 3.0 10.0 0.00 0.00 0.00 57 1003.7
20260505214609 90 320 3.0 9.0 0.00 0.00 0.00 56 1003.9
20260505213055 89 0 3.0 8.0 0.00 0.00 0.00 55 1003.8
20260505211608 90 320 2.0 11.0 0.00 0.00 0.00 55 1004.3
20260505210052 89 248 2.0 11.0 0.00 0.00 0.00 55 1004.7
20260505204549 88 320 6.0 13.0 0.00 0.00 0.00 57 1004.6
20260505203054 88 320 3.0 12.0 0.00 0.00 0.00 59 1004.9
20260505201605 88 237 7.0 18.0 0.00 0.00 0.00 58 1005.0
20260505194555 87 320 8.0 18.0 0.00 0.00 0.00 60 1005.2
20260505193052 86 320 8.0 19.0 0.00 0.00 0.00 62 1005.2
20260505191554 84 320 5.0 21.0 0.00 0.00 0.00 65 1005.2
20260505190059 84 264 11.0 22.0 0.00 0.00 0.00 65 1005.3
20260505184554 84 320 11.0 20.0 0.00 0.00 0.00 65 1005.5
20260505183059 83 320 5.0 14.0 0.00 0.00 0.00 66 1005.6
20260505181555 83 320 8.0 17.0 0.00 0.00 0.00 66 1005.7
20260505180058 82 320 9.0 18.0 0.00 0.00 0.00 67 1005.7
20260505174553 82 320 7.0 19.0 0.00 0.00 0.00 68 1005.9
20260505173107 81 254 8.0 18.0 0.00 0.00 0.00 68 1006.0
20260505171556 80 320 7.0 17.0 0.00 0.00 0.00 70 1005.8
20260505170053 80 320 6.0 19.0 0.00 0.00 0.00 70 1005.9
20260505164614 80 320 10.0 17.0 0.00 0.00 0.00 70 1005.7
20260505163054 79 148 8.0 27.0 0.00 0.00 0.00 71 1005.6
20260505161558 79 320 9.0 19.0 0.00 0.00 0.00 72 1005.5
20260505153058 76 320 7.0 20.0 0.00 0.00 0.00 76 1005.9
20260505151558 76 320 8.0 24.0 0.00 0.00 0.00 76 1005.9